SOYUZ-MS 11 (43756 NORAD) Tracking and Keplerian Element Data

This shows tracking and keplerian element data for the satellite.

Feedback or suggestion? Click here.




ElementValue
Catalog43756
NameSOYUZ-MS 11
Epoch Orbit16676
Epoch Day113.52041949
Epoch Year2019
RAAN272.9322
Inclination51.6408
Eccentricity0.0001153
Argument of Perigee202.7505
Mean Anonmoly265.49
Mean Motion15.52580921
Decay Rate9.27E-06
L11 43756U 18098A 19113.52041949 .00000927 00000-0 22287-4 0 9993
L22 43756 51.6408 272.9322 0001153 202.7505 265.4900 15.52580921166769

Live tracking and technical data element details for SOYUZ-MS 11 (NORAD 43756). SOYUZ-MS 11 can be tracked NOW for your location showing map with azimuth and elevation plus other details from your city location.

Track the satellite on the map from your city or location and see movement details for azimuth, elevation, latitude, longitude, range, height, and movement on the map or in text.







IsCatalogInMostPopularTable: catalog: 43756, numindb: 62
Update: records affected: 1



GetName: 43756 SOYUZ-MS 11

Hit Count: updated at: Wed, 24 Apr 2019 17:47:21 GMT